Weather History for PAIK - February, 2013

Change the Weather History Date:

Friday, February 8, 2013

  Actual Average (PASK) Record (PASK)
Temperature  
Mean Temperature -22 °F -  
Max Temperature -20 °F 4 °F 28 °F (2003)
Min Temperature -27 °F -4 °F -52 °F (1999)
Degree Days  
Heating Degree Days 87    
Moisture  
Dew Point -28 °F    
Average Humidity 75    
Maximum Humidity 78    
Minimum Humidity 69    
Precipitation  
Precipitation 0.00 in - - ()
Sea Level Pressure  
Sea Level Pressure 29.91 in    
Wind  
Wind Speed 3 mph (NE)    
Max Wind Speed 9 mph    
Max Gust Speed -    
Visibility 10 miles    
Events Snow    
Averages and records for this station are not official NWS values.
T = Trace of Precipitation, MM = Missing Value Source: NWS Daily Summary

Daily Weather History Graph

Daily Weather History Graph

Search for Another Location

Airport or City:

Trip Planner

Search our weather history database for the weather conditions in past years. The results will help you decide how hot, cold, wet, or windy it might be!

Date:

Astronomy

Feb. 08, 2013 Rise Set
Actual Time 10:18 AM AKST 5:35 PM AKST
Civil Twilight 9:16 AM AKST 6:36 PM AKST
Nautical Twilight 8:12 AM AKST 7:41 PM AKST
Astronomical Twilight 7:10 AM AKST 8:42 PM AKST
Moon 9:15 AM AKST (2/8) 4:09 PM AKST (2/8)
Length of Visible Light 9h 20m
Length of Day
7h 17m
Waning Crescent, 3% of the Moon is Illuminated
Feb 8
Waning Crescent
Feb 9
New
Feb 17
First Quarter
Feb 25
Full
Mar 4
Last Quarter

Hourly Weather History & Observations

Time (AKST) Temp. Windchill Dew Point Humidity Pressure Visibility Wind Dir Wind Speed Gust Speed Precip Events Conditions
12:01 AM -22.0 °F -39.4 °F -27.0 °F 77% 29.72 in 10.0 mi NNW 6.9 mph - N/A   Clear
1:01 AM -20.9 °F -31.7 °F -26.0 °F 77% 29.73 in 10.0 mi North 3.5 mph - N/A   Clear
2:01 AM -22.0 °F -42.3 °F -27.0 °F 77% 29.74 in 10.0 mi NNW 9.2 mph - N/A   Clear
3:01 AM -22.0 °F - -27.9 °F 74% 29.75 in 10.0 mi Calm Calm - N/A   Clear
4:01 AM -23.1 °F - -29.0 °F 74% 29.76 in 10.0 mi Calm Calm - N/A   Clear
5:01 AM -24.0 °F -35.2 °F -29.0 °F 77% 29.78 in 10.0 mi WNW 3.5 mph - N/A   Clear
6:01 AM -25.1 °F - -31.0 °F 74% 29.79 in 10.0 mi Calm Calm - N/A   Clear
7:01 AM -27.9 °F - -35.0 °F 69% 29.81 in 10.0 mi Calm Calm - N/A   Clear
8:01 AM -27.0 °F -41.5 °F -34.1 °F 69% 29.83 in 10.0 mi NW 4.6 mph - N/A   Clear
9:01 AM -25.1 °F - -29.9 °F 78% 29.85 in 7.0 mi Calm Calm - N/A   Clear
10:01 AM -27.0 °F - -33.0 °F 73% 29.87 in 10.0 mi Calm Calm - N/A   Clear
11:01 AM -27.0 °F -38.7 °F -32.1 °F 77% 29.90 in 10.0 mi East 3.5 mph - N/A   Clear
12:01 PM -23.1 °F - -29.0 °F 74% 29.94 in 10.0 mi Calm Calm - N/A   Clear
1:01 PM -20.0 °F - -26.0 °F 74% 29.95 in 10.0 mi Calm Calm - N/A   Clear
2:01 PM -17.0 °F - -24.0 °F 70% 29.98 in 10.0 mi Calm Calm - N/A   Clear
3:01 PM -17.0 °F -31.7 °F -23.1 °F 74% 30.00 in 10.0 mi South 5.8 mph - N/A   Clear
4:01 PM -17.0 °F -29.7 °F -23.1 °F 74% 30.00 in 10.0 mi South 4.6 mph - N/A   Clear
5:01 PM -18.0 °F -28.5 °F -24.0 °F 74% 30.02 in 10.0 mi SSE 3.5 mph - N/A   Clear
6:01 PM -22.0 °F -33.0 °F -27.0 °F 77% 30.03 in 10.0 mi ESE 3.5 mph - N/A   Clear
7:01 PM -23.1 °F -34.2 °F -27.9 °F 78% 30.05 in 10.0 mi SE 3.5 mph - N/A   Clear
8:01 PM -24.0 °F - -29.0 °F 77% 30.06 in 10.0 mi Calm Calm - N/A   Partly Cloudy
9:01 PM -23.1 °F -38.9 °F -27.9 °F 78% 30.06 in 10.0 mi NE 5.8 mph - N/A   Overcast
10:01 PM -23.1 °F - -29.0 °F 74% 30.06 in 10.0 mi Calm Calm - N/A   Overcast
11:01 PM -20.9 °F - -27.0 °F 73% 30.06 in 10.0 mi Calm Calm - 0.00 in Snow Light Snow